Regional Weather Roundup
Issued by NWS

Home | Current Version | Previous Version | Graphics & Text | Print | Product List | Glossary On
Versions: 1 2 3 4 5 6 7 8 9 10 11 12 13 14 15 16 17 18 19 20 21 22 23 24 25 26 27 28 29 30 31 32 33 34 35 36 37 38 39 40 41 42 43 44 45 46 47 48 49 50
000
ASUS45 KSLC 301510
RWRUT

UTAH REGIONAL WEATHER ROUNDUP
NATIONAL WEATHER SERVICE SALT LAKE CITY UT
900 AM MDT MON MAR 30 2015

UTZ001>011-023>025-301600-

NORTHERN UTAH

CITY           SKY/WX    TMP DP  RH WIND       PRES   REMARKS
BRIGHAM CITY   SUNNY     39  26  59 CALM      30.24R
HILL AFB       NOT AVBL
LOGAN          SUNNY     36  28  73 CALM      30.26R
OGDEN          SUNNY     48  20  32 S3        30.22S
PROVO AIRPORT  SUNNY     46  25  42 SE3       30.25S
SALT LAKE CITY SUNNY     51  27  39 CALM      30.23R
VERNAL         SUNNY     49  19  30 N5        30.26R
WENDOVER       MOSUNNY   45  19  36 CALM      30.23R
HEBER CITY     SUNNY     36  27  69 CALM      30.30S
WEST JORDAN    SUNNY     52  28  40 S6        30.23R

$$

UTZ012>022-026-027-301600-

SOUTHERN/CENTRAL UTAH

CITY           SKY/WX    TMP DP  RH WIND       PRES   REMARKS
BLANDING       SUNNY     56  27  32 N3        30.32R
BRYCE CANYON   SUNNY     42  25  50 W6        30.34S
CEDAR CITY     SUNNY     46  24  42 N5        30.24R
DELTA          SUNNY     46  21  37 S3        30.23S
HANKSVILLE     SUNNY     46  18  31 CALM      30.23R
MILFORD        SUNNY     39  20  46 S8        30.23S WCI  33
MOAB/CYNLANDS  SUNNY     53  13  20 CALM      30.19S
PRICE          SUNNY     53  15  22 CALM      30.23S
ST GEORGE      SUNNY     57  25  28 CALM      30.17R
KANAB          SUNNY     48  28  46 N3        30.26R

$$

REGIONAL REPORTS     COLORADO/ARIZONA

CITY           SKY/WX    TMP DP  RH WIND       PRES   REMARKS
CRAIG, CO      SUNNY     33  25  72 CALM      30.30S
GRAND JUNCTION SUNNY     49  17  28 S6        30.23R
RIFLE          SUNNY     41  21  44 CALM      30.29R
MONTROSE       SUNNY     51  12  21 SE3       30.28R
CORTEZ         SUNNY     48  18  30 CALM      30.27R
PAGE, AZ       SUNNY     59  26  28 NE3       30.18R
GRAND CANYON   SUNNY     44  27  51 CALM      30.29S
KINGMAN        SUNNY     63  25  23 CALM      30.13R
FLAGSTAFF      MOSUNNY   41  25  53 CALM      30.31R

$$

REGIONAL REPORTS    NEVADA/IDAHO/WYOMING

CITY           SKY/WX    TMP DP  RH WIND       PRES   REMARKS
LAS VEGAS, NV  MOSUNNY   67  25  20 S8        30.03R
ELY            SUNNY     38  16  40 S9        30.28S WCI  31
ELKO           MOSUNNY   37  16  42 CALM      30.25S
POCATELLO, ID  SUNNY     40  23  50 CALM      30.25R
BURLEY         SUNNY     41  28  60 CALM      30.21S
EVANSTON, WY   SUNNY     41  17  38 S6        30.30R
ROCK SPRINGS   SUNNY     42  14  32 W3        30.28R
KEMMERER       SUNNY     37  23  56 CALM      30.30

$$


USA.gov is the U.S. government's official web portal to all federal, state and local government web resources and services.